Location: *
(11.7485°N, 79.7483°E)
Time: 02:51:11
(UTC+00:00)

Cosmos 990 Rocket - Pass Details

Date: 22 January 2021
Orbit: 748 x 768 km, 74.0° (Epoch: 05 March)

Event Time Altitude Azimuth Distance (km) Brightness Sun altitude
Rises 00:22:35 0° 346° (NNW) 3,181 6.9 -10.9°
Reaches altitude 10° 00:24:56 10° 346° (NNW) 2,257 6.1 -10.3°
Maximum altitude 00:30:03 87° 258° (WSW) 752 3.9 -9.1°
Drops below altitude 10° 00:35:11 10° 169° (S) 2,264 6.9 -7.9°
Sets 00:37:33 0° 168° (SSE) 3,190 7.7 -7.4°
